Location: Maccacari
(45.1333°N, 11.1333°E)
Time: 14:37:53
(UTC+00:00)

Tiros 1 - All Passes

Search period start: 23 January 2021 00:00
Search period end: 02 February 2021 00:00
Orbit: 630 x 663 km, 48.4° (Epoch: 23 January)

Date Brightness Start Highest point End Pass type
(mag) Time Alt. Az. Time Alt. Az. Time Alt. Az.
23 Jan - 15:51:44 10° SSE 15:53:37 12° SE 15:55:30 10° ESE daylight
23 Jan - 17:30:31 10° SW 17:35:01 52° SSE 17:39:31 10° ENE visible
23 Jan - 19:12:35 10° W 19:17:12 65° N 19:21:49 10° ENE visible
23 Jan - 20:55:10 10° WNW 20:59:45 61° N 21:04:20 10° E night (unlit)
23 Jan - 22:37:27 10° WNW 22:42:01 62° SSW 22:46:35 10° SE night (unlit)
24 Jan - 00:20:48 10° W 00:23:33 16° SW 00:26:18 10° S night (unlit)
24 Jan - 16:15:19 10° SSW 16:19:09 26° SE 16:22:58 10° E daylight
24 Jan - 17:56:18 10° WSW 18:00:57 87° SSE 18:05:35 10° ENE visible
24 Jan - 19:38:48 10° W 19:43:23 57° N 19:47:56 10° ENE visible
24 Jan - 21:21:14 10° WNW 21:25:52 80° NNE 21:30:30 10° ESE night (unlit)
24 Jan - 23:03:39 10° W 23:07:49 33° SW 23:11:58 10° SSE night (unlit)
25 Jan - 15:02:04 10° SSE 15:03:30 11° SE 15:04:56 10° ESE daylight
25 Jan - 16:40:24 10° SW 16:44:52 49° SSE 16:49:21 10° ENE visible
25 Jan - 18:22:23 10° W 18:27:02 67° NNW 18:31:38 10° ENE visible
25 Jan - 20:04:58 10° WNW 20:09:34 60° N 20:14:09 10° E visible
25 Jan - 21:47:16 10° WNW 21:51:52 66° SSW 21:56:26 10° SE night (unlit)
25 Jan - 23:30:27 10° W 23:33:26 17° SW 23:36:24 10° S night (unlit)
26 Jan - 15:25:17 10° SSW 15:29:01 24° SE 15:32:45 10° E daylight
26 Jan - 17:06:07 10° WSW 17:10:47 83° SSE 17:15:25 10° ENE visible
26 Jan - 18:48:37 10° W 18:53:11 57° N 18:57:45 10° ENE visible
26 Jan - 20:31:03 10° WNW 20:35:42 77° NNE 20:40:19 10° ESE visible
26 Jan - 22:13:27 10° WNW 22:17:41 36° SW 22:21:54 10° SSE night (unlit)
27 Jan - 14:12:46 10° SE 14:13:24 10° SE 14:14:01 10° ESE daylight
27 Jan - 15:50:16 10° SW 15:54:43 46° SSE 15:59:10 10° ENE daylight
27 Jan - 17:32:11 10° W 17:36:50 69° NNW 17:41:28 10° ENE visible
27 Jan - 19:14:47 10° WNW 19:19:23 59° N 19:23:58 10° E visible
27 Jan - 20:57:05 10° WNW 21:01:42 70° SSW 21:06:18 10° ESE visible
27 Jan - 22:40:09 10° W 22:43:19 18° SW 22:46:28 10° S night (unlit)
28 Jan - 14:35:16 10° S 14:38:53 22° SE 14:42:30 10° E daylight
28 Jan - 16:15:56 10° WSW 16:20:37 79° SSE 16:25:15 10° ENE daylight
28 Jan - 17:58:24 10° W 18:03:00 57° N 18:07:34 10° ENE visible
28 Jan - 19:40:52 10° WNW 19:45:31 75° NNE 19:50:09 10° ESE visible
28 Jan - 21:23:15 10° WNW 21:27:33 38° SW 21:31:50 10° SSE night (unlit)
29 Jan - 15:00:09 10° SW 15:04:35 43° SSE 15:08:59 10° ENE daylight
29 Jan - 16:41:59 10° W 16:46:40 71° NNW 16:51:18 10° ENE visible
29 Jan - 18:24:36 10° WNW 18:29:12 58° N 18:33:46 10° E visible
29 Jan - 20:06:56 10° WNW 20:11:32 74° SSW 20:16:09 10° ESE visible
29 Jan - 21:49:51 10° W 21:53:11 20° SW 21:56:31 10° S night (unlit)
30 Jan - 13:45:16 10° S 13:48:46 21° SE 13:52:14 10° E daylight
30 Jan - 15:25:46 10° WSW 15:30:27 75° SSE 15:35:06 10° ENE daylight
30 Jan - 17:08:12 10° W 17:12:49 58° N 17:17:24 10° ENE visible
30 Jan - 18:50:42 10° WNW 18:55:20 72° NNE 18:59:58 10° E visible
30 Jan - 20:33:03 10° WNW 20:37:24 41° SW 20:41:44 10° SE visible
31 Jan - 14:10:03 10° SW 14:14:26 40° SE 14:18:48 10° ENE daylight
31 Jan - 15:51:47 10° WSW 15:56:29 74° NNW 16:01:08 10° ENE daylight
31 Jan - 17:34:25 10° WNW 17:39:01 58° N 17:43:35 10° E visible
31 Jan - 19:16:44 10° WNW 19:21:23 77° SSW 19:26:00 10° ESE visible
31 Jan - 20:59:34 10° W 21:03:04 21° SW 21:06:33 10° S visible
01 Feb - 12:55:17 10° S 12:58:38 19° SE 13:01:58 10° E daylight
01 Feb - 14:35:36 10° WSW 14:40:17 72° SSE 14:44:56 10° ENE daylight
01 Feb - 16:18:00 10° W 16:22:37 59° N 16:27:13 10° ENE daylight
01 Feb - 18:00:31 10° WNW 18:05:10 70° NNE 18:09:47 10° E visible
01 Feb - 19:42:51 10° WNW 19:47:15 44° SSW 19:51:38 10° SE visible
